Home > Weather > Kelowna > Past weeks

Flag for Canada Weather for the Past 2 Weeks in Kelowna, British Columbia, Canada

Now
59 °F

Sunny.


Feels Like: 58 °F
Forecast: 42 / 77 °F
Wind: 6 mph from Northeast

Location: Kelowna Airport

Current Time: May 6, 2016 at 10:37:44 AM

Latest Report: May 6, 2016 at 10:00 AM


Visibility: 9 mi

Pressure: 30.22 "Hg

Humidity: 59%

Dew Point: 45 °F

Location of KelownaLocation

Historic Weather in Kelowna — Graph

°F

Kelowna Temperature Yesterday

Maximum temperature yesterday: 64 °F (at 6:00 PM)
Minimum temperature yesterday: 46 °F (at 11:00 PM)
Average temperature yesterday: 57 °F

High & Low Weather Summary for the Past Weeks

 TemperatureHumidityPressure
High82 °F (May 2, 4:00 PM)100% (Apr 23, 5:00 AM)30.35 "Hg (Apr 23, 5:00 AM)
Low34 °F (Apr 26, 6:00 AM)17% (May 2, 4:00 PM)29.59 "Hg (Apr 21, 6:01 PM)
Average57 °F59%29.96 "Hg
* Reported Apr 21 9:00 AM — May 6 9:00 AM, Kelowna, Weather by CustomWeather, © 2016

Note: Actual official high and low records may vary slightly from our data, if they occured in-between our weather recording intervals... More about our weather records

Advertising

Kelowna Weather History for the Previous 24 Hours

Scroll right to see more
 ConditionsComfort  
Time TempWeatherWind HumidityBarometerVisibility
9:00 AM
Fri, May 6
55 °FSunny.6 mph72%30.23 "Hg9 mi
8:00 AM52 °FSunny.2 mph82%30.24 "Hg9 mi
7:00 AM45 °FPassing clouds.No wind93%30.24 "Hg9 mi
6:00 AM39 °FClear.No wind100%30.22 "Hg9 mi
5:00 AM39 °FClear.3 mph100%30.20 "Hg9 mi
4:00 AM39 °FClear.3 mph100%30.19 "Hg9 mi
3:00 AM41 °FClear.2 mph93%30.18 "Hg9 mi
2:00 AM41 °FClear.2 mph93%30.17 "Hg9 mi
1:00 AM43 °FClear.3 mph87%30.15 "Hg9 mi
12:00 AM45 °FClear.2 mph93%30.14 "Hg9 mi
11:00 PM
Thu, May 5
46 °FClear.2 mph93%30.12 "Hg9 mi
10:00 PM48 °FClear.5 mph87%30.11 "Hg9 mi
9:00 PM54 °FSunny.5 mph82%30.09 "Hg9 mi
8:00 PM61 °FSunny.No wind59%30.06 "Hg9 mi
7:00 PM63 °FSunny.3 mph52%30.05 "Hg9 mi
6:00 PM64 °FPartly sunny.3 mph52%30.05 "Hg9 mi
5:00 PM63 °FPartly sunny.No wind56%30.05 "Hg9 mi
4:00 PM61 °FPartly sunny.3 mph59%30.05 "Hg9 mi
3:00 PM61 °FScattered clouds.7 mph63%30.07 "Hg9 mi
2:00 PM59 °FPassing clouds.6 mph63%30.08 "Hg9 mi
1:00 PM59 °FPartly sunny.6 mph68%30.07 "Hg9 mi
12:00 PM59 °FPartly sunny.No wind55%30.07 "Hg9 mi
11:00 AM57 °FOvercast.5 mph67%30.06 "Hg9 mi
10:00 AM55 °FLight rain. Overcast.7 mph82%30.06 "Hg9 mi
Weather by CustomWeather, © 2016

See weather overviewHow to use our weather pages